Flag for U.S.A. Weather past 2 weeks in Avalon (Santa Catalina Island), California, U.S.A.

Now
65 °F

Fog.


Feels Like: 65 °F
Forecast: 67 / 75 °F
Wind: 15 mph from West

Location: Catalina Airport

Current Time: Sep 18, 2014 at 5:26:39 PM

Latest Report: Sep 18, 2014 at 4:51 PM


Visibility: 0 mi

Pressure: 29.83 "Hg

Humidity: 91%

Dew point: 62 °F

Location of Avalon (Santa Catalina Island)Location

Historic Weather in Avalon (Santa Catalina Island) — Graph

°F

Avalon (Santa Catalina Island) temperature yesterday

Maximum temperature yesterday: 89 °F (at 10:51 AM)
Minimum temperature yesterday: 64 °F (at 11:51 PM)
Average temperature yesterday: 79 °F

Past Weeks' High & Low Weather Summary

 TemperatureHumidityPressure
High96 °F (Sep 14, 11:51 AM)97% (Sep 3, 8:51 PM)29.94 "Hg (Sep 3, 8:51 PM)
Low58 °F (Sep 4, 10:00 PM)4% (Sep 10, 7:51 PM)29.68 "Hg (Sep 14, 5:51 PM)
Average77 °F41%29.78 "Hg
* Reported Sep 3 3:51 PM — Sep 18 3:57 PM, Avalon (Santa Catalina Island), Weather by CustomWeather, © 2014

Note: Actual official high and low records may vary slightly from our data, if they occured in-between our weather recording intervals... More about our weather records

Advertising

Avalon (Santa Catalina Island) weather history for previous 24 hours

 ConditionsComfort  
Time TempWeatherWind HumidityBarometerVisibility
3:57 PM
Sep 18
67 °FLow clouds.15 mph85%29.89 "Hg1 mi
2:51 PM69 °FPartly sunny.15 mph79%29.83 "Hg10 mi
1:51 PM68 °FLow clouds.14 mph82%29.86 "Hg5 mi
12:51 PM67 °FLow clouds.10 mph85%29.88 "Hg9 mi
11:59 AM65 °FFog.12 mph97%29.94 "Hg1 mi
10:51 AM65 °FFog.14 mph94%29.90 "Hg0 mi
9:51 AM65 °FFog.12 mph97%29.89 "Hg0 mi
8:51 AM64 °FFog.15 mph97%29.87 "Hg0 mi
7:51 AM63 °FFog.12 mph97%29.86 "Hg0 mi
6:51 AM63 °FFog.13 mph93%29.83 "Hg0 mi
5:51 AM63 °FFog.13 mph93%29.81 "Hg0 mi
4:51 AM62 °FFog.13 mph96%29.79 "Hg0 mi
3:51 AM63 °FFog.13 mph93%29.79 "Hg1 mi
2:51 AM63 °FFog.12 mph93%29.79 "Hg1 mi
2:04 AM63 °FFog.14 mph90%29.86 "Hg4 mi
12:51 AM63 °FClear.15 mph87%29.78 "Hg10 mi
11:51 PM
Sep 17
64 °FClear.12 mph84%29.77 "Hg10 mi
10:51 PM65 °FClear.13 mph81%29.76 "Hg10 mi
9:51 PM65 °FClear.12 mph81%29.76 "Hg10 mi
8:51 PM67 °FClear.16 mph73%29.75 "Hg10 mi
7:51 PM66 °FSunny.10 mph81%29.73 "Hg10 mi
6:51 PM69 °FSunny.14 mph73%29.72 "Hg10 mi
5:51 PM73 °FSunny.15 mph62%29.71 "Hg10 mi
Weather by CustomWeather, © 2014

See weather overviewHow to use our weather pages